FW6002 Weather Reports


time (UTC)temp
C
wind
direction
speed
KPH
gust
KPH
rain 1hr
cm
rain 24hr
cm
rain mn
cm
humidity
%
barometer
mb
20260903023104 30 90 1.6 8.0 0.00 0.00 0.00 61 1012.5
20260903022558 31 189 1.6 6.4 0.00 0.00 0.00 60 1012.3
20260903022054 31 189 0.0 8.0 0.00 0.00 0.00 60 1012.2
20260903021611 31 0 1.6 8.0 0.00 0.00 0.00 59 1012.3
20260903021056 31 197 1.6 9.7 0.00 0.00 0.00 58 1012.2
20260903020557 31 107 1.6 9.7 0.00 0.00 0.00 58 1012.1
20260903015555 31 94 1.6 8.0 0.00 0.00 0.00 56 1011.8
20260903015055 31 173 1.6 8.0 0.00 0.00 0.00 56 1011.7
20260903014626 31 51 1.6 8.0 0.00 0.00 0.00 55 1011.6
20260903014058 32 94 1.6 8.0 0.00 0.00 0.00 55 1011.7
20260903013555 32 159 1.6 4.8 0.00 0.00 0.00 55 1011.8
20260903013109 32 34 1.6 9.7 0.00 0.00 0.00 54 1011.8
20260903012555 32 181 1.6 11.3 0.00 0.00 0.00 53 1011.8
20260903012054 32 180 3.2 11.3 0.00 0.00 0.00 53 1011.7
20260903011608 32 196 1.6 4.8 0.00 0.00 0.00 53 1011.7
20260903011055 33 126 1.6 6.4 0.00 0.00 0.00 52 1011.6
20260903010556 33 0 1.6 9.7 0.00 0.00 0.00 51 1011.5
20260903010106 33 185 1.6 9.7 0.00 0.00 0.00 49 1011.5
20260903005555 33 224 3.2 8.0 0.00 0.00 0.00 47 1011.4
20260903005056 34 0 0.0 4.8 0.00 0.00 0.00 45 1011.3
20260903004602 34 248 0.0 4.8 0.00 0.00 0.00 45 1011.3
20260903004056 34 217 0.0 4.8 0.00 0.00 0.00 45 1011.3
20260903003555 34 281 0.0 6.4 0.00 0.00 0.00 45 1011.2
20260903003119 35 213 0.0 6.4 0.00 0.00 0.00 44 1011.0
20260903002555 35 186 1.6 6.4 0.00 0.00 0.00 44 1010.9
20260903002055 35 218 0.0 8.0 0.00 0.00 0.00 43 1010.9
20260903001600 35 228 1.6 8.0 0.00 0.00 0.00 43 1011.0
20260903001054 35 147 1.6 8.0 0.00 0.00 0.00 42 1010.8
20260903000556 35 157 1.6 8.0 0.00 0.00 0.00 42 1010.8
20260903000108 35 0 0.0 6.4 0.00 0.00 0.00 42 1010.7
20260902235556 35 201 1.6 6.4 0.00 0.00 0.00 42 1010.8
20260902235059 35 265 1.6 6.4 0.00 0.00 0.00 42 1010.8
20260902234607 35 243 1.6 8.0 0.00 0.00 0.00 43 1010.7
20260902234058 36 196 1.6 8.0 0.00 0.00 0.00 42 1010.9
20260902233556 36 287 3.2 8.0 0.00 0.00 0.00 42 1011.0
20260902233102 36 200 1.6 6.4 0.00 0.00 0.00 42 1010.9
20260902232555 36 201 1.6 6.4 0.00 0.00 0.00 42 1010.9
20260902232055 36 205 1.6 6.4 0.00 0.00 0.00 42 1010.8
20260902231604 36 245 1.6 9.7 0.00 0.00 0.00 42 1010.9
20260902231055 36 278 1.6 9.7 0.00 0.00 0.00 42 1011.0
20260902230554 36 192 1.6 4.8 0.00 0.00 0.00 41 1011.0
20260902230122 36 252 0.0 9.7 0.00 0.00 0.00 42 1011.1
20260902225559 36 47 0.0 9.7 0.00 0.00 0.00 42 1011.0
20260902225054 36 202 3.2 9.7 0.00 0.00 0.00 41 1010.9
20260902224614 36 177 1.6 12.9 0.00 0.00 0.00 41 1010.9
20260902224056 36 223 1.6 12.9 0.00 0.00 0.00 42 1010.8
20260902223559 36 296 1.6 8.0 0.00 0.00 0.00 41 1010.8
20260902223114 36 238 3.2 8.0 0.00 0.00 0.00 40 1010.7
20260902222555 37 0 1.6 8.0 0.00 0.00 0.00 40 1011.0
20260902222054 37 0 0.0 8.0 0.00 0.00 0.00 41 1010.8
20260902221609 37 199 0.0 11.3 0.00 0.00 0.00 40 1011.0
20260902221100 37 213 1.6 11.3 0.00 0.00 0.00 40 1010.8
20260902220557 36 190 3.2 11.3 0.00 0.00 0.00 40 1011.0
20260902220100 37 238 1.6 9.7 0.00 0.00 0.00 40 1011.0
20260902215556 37 197 1.6 9.7 0.00 0.00 0.00 40 1011.1
20260902215054 37 249 0.0 8.0 0.00 0.00 0.00 39 1011.1
20260902214625 37 0 1.6 8.0 0.00 0.00 0.00 39 1011.2
20260902214055 37 207 1.6 6.4 0.00 0.00 0.00 38 1011.2
20260902213554 37 169 0.0 4.8 0.00 0.00 0.00 40 1011.3
20260902213102 37 0 1.6 4.8 0.00 0.00 0.00 39 1011.4
20260902212555 37 288 0.0 9.7 0.00 0.00 0.00 39 1011.4
20260902212055 38 254 1.6 9.7 0.00 0.00 0.00 37 1011.5
20260902211604 38 213 1.6 6.4 0.00 0.00 0.00 37 1011.4
20260902211054 38 169 0.0 6.4 0.00 0.00 0.00 37 1011.5
20260902210558 38 0 0.0 6.4 0.00 0.00 0.00 38 1011.4
20260902210058 39 194 0.0 4.8 0.00 0.00 0.00 37 1011.5
20260902205554 38 236 1.6 6.4 0.00 0.00 0.00 36 1011.6
20260902205055 39 297 1.6 6.4 0.00 0.00 0.00 36 1011.8
20260902204610 38 0 1.6 4.8 0.00 0.00 0.00 36 1011.5
20260902204054 40 180 0.0 4.8 0.00 0.00 0.00 35 1011.6
20260902203555 40 225 0.0 4.8 0.00 0.00 0.00 37 1011.6
20260902203101 39 181 0.0 4.8 0.00 0.00 0.00 35 1011.7
20260902202555 39 178 1.6 8.0 0.00 0.00 0.00 37 1011.7
20260902202055 39 0 1.6 8.0 0.00 0.00 0.00 37 1011.8
20260902201632 39 206 1.6 6.4 0.00 0.00 0.00 37 1011.8
20260902201055 40 215 0.0 6.4 0.00 0.00 0.00 37 1012.1
20260902200554 39 267 1.6 8.0 0.00 0.00 0.00 37 1012.1
20260902200108 38 122 3.2 8.0 0.00 0.00 0.00 38 1012.1
20260902195556 38 268 1.6 6.4 0.00 0.00 0.00 38 1012.2
20260902195055 38 175 1.6 4.8 0.00 0.00 0.00 39 1012.2
20260902194605 39 149 0.0 8.0 0.00 0.00 0.00 37 1012.4
20260902194055 38 343 1.6 8.0 0.00 0.00 0.00 37 1012.5
20260902193559 39 163 1.6 6.4 0.00 0.00 0.00 37 1012.7
20260902193104 40 315 1.6 8.0 0.00 0.00 0.00 37 1012.8
20260902192554 40 278 0.0 8.0 0.00 0.00 0.00 38 1012.9
20260902192055 38 0 1.6 8.0 0.00 0.00 0.00 40 1012.9
20260902191603 38 200 1.6 4.8 0.00 0.00 0.00 39 1012.8
20260902191054 39 185 0.0 3.2 0.00 0.00 0.00 39 1013.0
20260902190554 39 313 0.0 3.2 0.00 0.00 0.00 40 1013.1
20260902190106 38 63 0.0 4.8 0.00 0.00 0.00 41 1013.1
20260902185556 38 350 1.6 4.8 0.00 0.00 0.00 43 1013.3
20260902185057 38 31 0.0 6.4 0.00 0.00 0.00 43 1013.4
20260902184608 38 175 0.0 6.4 0.00 0.00 0.00 44 1013.4
20260902184055 38 0 0.0 4.8 0.00 0.00 0.00 42 1013.4
20260902183557 37 50 0.0 4.8 0.00 0.00 0.00 46 1013.5
20260902183105 37 211 0.0 3.2 0.00 0.00 0.00 43 1013.7
20260902182555 37 352 0.0 3.2 0.00 0.00 0.00 43 1013.7
20260902182057 38 250 1.6 3.2 0.00 0.00 0.00 43 1014.0
20260902181604 38 0 0.0 3.2 0.00 0.00 0.00 46 1013.9
20260902181054 38 215 0.0 4.8 0.00 0.00 0.00 45 1014.2
20260902180554 37 321 0.0 4.8 0.00 0.00 0.00 44 1014.3
20260902180113 37 260 0.0 4.8 0.00 0.00 0.00 44 1014.4
20260902175554 37 22 1.6 4.8 0.00 0.00 0.00 45 1014.4
20260902175125 37 324 0.0 3.2 0.00 0.00 0.00 44 1014.6
20260902174609 37 0 0.0 3.2 0.00 0.00 0.00 44 1014.6
20260902174059 37 19 0.0 3.2 0.00 0.00 0.00 45 1014.7
20260902173555 37 56 0.0 3.2 0.00 0.00 0.00 45 1014.7
20260902173104 37 360 0.0 3.2 0.00 0.00 0.00 45 1015.0
20260902172555 37 28 0.0 3.2 0.00 0.00 0.00 46 1015.0
20260902172055 36 38 0.0 3.2 0.00 0.00 0.00 47 1015.2
20260902171602 36 0 0.0 3.2 0.00 0.00 0.00 46 1015.2
20260902171055 36 0 0.0 4.8 0.00 0.00 0.00 48 1015.3
20260902170557 36 28 0.0 4.8 0.00 0.00 0.00 47 1015.3
20260902170106 36 242 0.0 3.2 0.00 0.00 0.00 47 1015.3
20260902165555 36 215 1.6 3.2 0.00 0.00 0.00 46 1015.5
20260902165054 36 282 0.0 4.8 0.00 0.00 0.00 48 1015.3
20260902164605 36 290 0.0 4.8 0.00 0.00 0.00 48 1015.4
20260902164054 36 121 0.0 4.8 0.00 0.00 0.00 50 1015.5
20260902163555 36 57 0.0 3.2 0.00 0.00 0.00 53 1015.6
20260902163106 35 44 0.0 3.2 0.00 0.00 0.00 53 1015.6
20260902162555 35 323 1.6 3.2 0.00 0.00 0.00 55 1015.7
20260902162055 35 67 0.0 3.2 0.00 0.00 0.00 53 1015.7
20260902161605 35 0 0.0 3.2 0.00 0.00 0.00 54 1015.6
20260902161054 35 0 0.0 3.2 0.00 0.00 0.00 56 1015.7
20260902160555 35 29 0.0 3.2 0.00 0.00 0.00 55 1015.9
20260902160059 34 0 0.0 3.2 0.00 0.00 0.00 56 1015.7
20260902155558 33 0 0.0 3.2 0.00 0.00 0.00 58 1015.8
20260902155055 33 274 0.0 3.2 0.00 0.00 0.00 57 1015.7
20260902154607 33 0 0.0 4.8 0.00 0.00 0.00 57 1015.6
20260902154054 33 0 0.0 6.4 0.00 0.00 0.00 59 1015.8
20260902153556 33 32 0.0 6.4 0.00 0.00 0.00 59 1015.8
20260902153104 32 63 1.6 6.4 0.00 0.00 0.00 59 1015.8
20260902152556 32 182 0.0 3.2 0.00 0.00 0.00 60 1015.8
20260902152055 32 207 0.0 4.8 0.00 0.00 0.00 59 1015.8
20260902151603 32 61 0.0 4.8 0.00 0.00 0.00 61 1015.8
20260902151057 32 154 0.0 4.8 0.00 0.00 0.00 62 1015.9
20260902150555 31 44 1.6 4.8 0.00 0.00 0.00 63 1015.7
20260902150103 31 121 0.0 4.8 0.00 0.00 0.00 62 1015.8
20260902145556 31 200 0.0 4.8 0.00 0.00 0.00 63 1015.9
20260902145056 31 193 0.0 4.8 0.00 0.00 0.00 63 1015.9
20260902144607 30 225 1.6 6.4 0.00 0.00 0.00 65 1015.9
20260902144055 30 69 1.6 8.0 0.00 0.00 0.00 64 1015.9
20260902143556 30 54 1.6 8.0 0.00 0.00 0.00 65 1015.9
20260902143107 30 48 1.6 6.4 0.00 0.00 0.00 65 1015.8
20260902142555 30 0 1.6 6.4 0.00 0.00 0.00 66 1016.0
20260902142056 30 58 1.6 4.8 0.00 0.00 0.00 66 1015.9
20260902141603 29 62 1.6 4.8 0.00 0.00 0.00 67 1015.8
20260902141057 29 98 0.0 4.8 0.00 0.00 0.00 68 1015.9
20260902140558 28 0 0.0 4.8 0.00 0.00 0.00 69 1015.7
20260902140109 28 75 0.0 4.8 0.00 0.00 0.00 70 1015.8
20260902135557 28 174 0.0 3.2 0.00 0.00 0.00 71 1015.8
20260902135055 27 182 0.0 3.2 0.00 0.00 0.00 73 1015.8
20260902134601 27 146 0.0 1.6 0.00 0.00 0.00 73 1015.8
20260902134055 27 80 0.0 1.6 0.00 0.00 0.00 74 1015.6
20260902133555 27 0 0.0 0.0 0.00 0.00 0.00 76 1015.7
20260902133106 26 0 0.0 0.0 0.00 0.00 0.00 77 1015.6
20260902132555 26 0 0.0 0.0 0.00 0.00 0.00 78 1015.8
20260902132055 26 0 0.0 0.0 0.00 0.00 0.00 79 1015.7
20260902131608 26 0 0.0 0.0 0.00 0.00 0.00 79 1015.6
20260902131056 25 0 0.0 0.0 0.00 0.00 0.00 80 1015.6
20260902130556 25 0 0.0 0.0 0.00 0.00 0.00 81 1015.5
20260902130107 25 0 0.0 0.0 0.00 0.00 0.00 83 1015.4
20260902125555 24 0 0.0 0.0 0.00 0.00 0.00 83 1015.4
20260902125056 23 0 0.0 0.0 0.00 0.00 0.00 84 1015.5
20260902124600 23 0 0.0 0.0 0.00 0.00 0.00 84 1015.3
20260902124055 23 0 0.0 0.0 0.00 0.00 0.00 84 1015.5
20260902123555 23 0 0.0 0.0 0.00 0.00 0.00 84 1015.3
20260902123107 23 0 0.0 0.0 0.00 0.00 0.00 85 1015.3
20260902122555 23 0 0.0 0.0 0.00 0.00 0.00 85 1015.2
20260902122055 23 0 0.0 0.0 0.00 0.00 0.00 84 1015.1
20260902121609 23 0 0.0 0.0 0.00 0.00 0.00 84 1015.1
20260902121056 23 0 0.0 0.0 0.00 0.00 0.00 84 1015.1
20260902120558 23 0 0.0 0.0 0.00 0.00 0.00 84 1015.1
20260902120104 23 0 0.0 0.0 0.00 0.00 0.00 84 1015.0
20260902115554 23 0 0.0 0.0 0.00 0.00 0.00 83 1015.2
20260902115055 23 0 0.0 0.0 0.00 0.00 0.00 83 1015.0
20260902114559 23 0 0.0 0.0 0.00 0.00 0.00 83 1015.1
20260902114055 23 0 0.0 0.0 0.00 0.00 0.00 83 1015.0
20260902113559 23 0 0.0 0.0 0.00 0.00 0.00 83 1015.0
20260902113108 23 0 0.0 0.0 0.00 0.00 0.00 83 1015.1
20260902112649 23 0 0.0 0.0 0.00 0.00 0.00 82 1015.1
20260902112056 23 0 0.0 0.0 0.00 0.00 0.00 82 1015.0
20260902111601 23 0 0.0 0.0 0.00 0.00 0.00 81 1015.0
20260902111055 23 0 0.0 0.0 0.00 0.00 0.00 81 1015.0
20260902110555 23 0 0.0 0.0 0.00 0.00 0.00 81 1015.0
20260902110101 24 0 0.0 0.0 0.00 0.00 0.00 81 1014.9
20260902105554 24 0 0.0 0.0 0.00 0.00 0.00 80 1014.9
20260902105056 24 0 0.0 0.0 0.00 0.00 0.00 80 1014.9
20260902104615 24 0 0.0 0.0 0.00 0.00 0.00 81 1014.9
20260902104055 24 0 0.0 0.0 0.00 0.00 0.00 80 1015.0
20260902103555 24 0 0.0 0.0 0.00 0.00 0.00 80 1015.0
20260902103106 24 0 0.0 0.0 0.00 0.00 0.00 80 1015.0
20260902102555 24 0 0.0 0.0 0.00 0.00 0.00 80 1014.9
20260902102056 24 0 0.0 0.0 0.00 0.00 0.00 79 1015.0
20260902101601 24 0 0.0 0.0 0.00 0.00 0.00 79 1014.9
20260902101055 25 0 0.0 0.0 0.00 0.00 0.00 79 1014.9
20260902100555 25 0 0.0 0.0 0.00 0.00 0.00 78 1014.9
20260902100104 25 0 0.0 0.0 0.00 0.00 0.00 78 1014.9
20260902095554 25 0 0.0 0.0 0.00 0.00 0.00 78 1015.0
20260902095055 25 0 0.0 0.0 0.00 0.00 0.00 78 1015.0
20260902094606 25 0 0.0 0.0 0.00 0.00 0.00 78 1014.7
20260902094056 25 0 0.0 0.0 0.00 0.00 0.00 78 1014.8
20260902093556 25 0 0.0 0.0 0.00 0.00 0.00 78 1014.8
20260902093105 25 0 0.0 0.0 0.00 0.00 0.00 78 1014.7
20260902092555 25 0 0.0 0.0 0.00 0.00 0.00 77 1014.9
20260902092055 25 0 0.0 0.0 0.00 0.00 0.00 77 1015.0
20260902091612 25 0 0.0 0.0 0.00 0.00 0.00 77 1015.0
20260902091055 25 0 0.0 0.0 0.00 0.00 0.00 76 1015.0
20260902090559 25 0 0.0 0.0 0.00 0.00 0.00 76 1014.9
20260902090106 25 0 0.0 0.0 0.00 0.00 0.00 76 1014.9
20260902085555 26 0 0.0 0.0 0.00 0.00 0.00 75 1015.0
20260902085055 26 0 0.0 0.0 0.00 0.00 0.00 74 1015.1
20260902084608 26 0 0.0 0.0 0.00 0.00 0.00 74 1015.0
20260902084056 26 0 0.0 0.0 0.00 0.00 0.00 73 1015.1
20260902083555 26 0 0.0 0.0 0.00 0.00 0.00 73 1015.2
20260902083117 26 0 0.0 3.2 0.00 0.00 0.00 72 1015.0
20260902082555 27 0 0.0 3.2 0.00 0.00 0.00 72 1015.2
20260902082055 27 0 0.0 3.2 0.00 0.00 0.00 72 1015.1
20260902081601 27 0 0.0 3.2 0.00 0.00 0.00 72 1015.1
20260902081055 27 0 0.0 3.2 0.00 0.00 0.00 72 1015.2
20260902080559 27 0 0.0 1.6 0.00 0.00 0.00 72 1015.2
20260902075558 27 0 0.0 3.2 0.00 0.00 0.00 72 1015.1
20260902075056 27 0 0.0 3.2 0.00 0.00 0.00 71 1015.1
20260902074619 27 0 0.0 3.2 0.00 0.00 0.00 71 1015.2
20260902074055 27 60 0.0 3.2 0.00 0.00 0.00 71 1015.3
20260902073556 27 0 0.0 3.2 0.00 0.00 0.00 71 1015.3
20260902073104 27 82 0.0 3.2 0.00 0.00 0.00 70 1015.3
20260902072556 27 0 0.0 3.2 0.00 0.00 0.00 70 1015.3
20260902072057 27 65 0.0 3.2 0.00 0.00 0.00 70 1015.3
20260902071602 27 0 0.0 4.8 0.00 0.00 0.00 69 1015.2
20260902071058 27 0 0.0 4.8 0.00 0.00 0.00 69 1015.3
20260902070554 27 72 0.0 3.2 0.00 0.00 0.00 69 1015.4
20260902070106 27 93 0.0 3.2 0.00 0.00 0.00 69 1015.3
20260902065555 27 0 1.6 4.8 0.00 0.00 0.00 69 1015.3
20260902065056 28 0 0.0 4.8 0.00 0.00 0.00 68 1015.4
20260902064601 28 0 0.0 4.8 0.00 0.00 0.00 68 1015.4
20260902064057 28 0 1.6 4.8 0.00 0.00 0.00 68 1015.5
20260902063556 28 0 1.6 6.4 0.00 0.00 0.00 68 1015.4
20260902063103 28 0 1.6 6.4 0.00 0.00 0.00 67 1015.3
20260902062556 28 188 1.6 6.4 0.00 0.00 0.00 67 1015.3
20260902062055 28 0 1.6 8.0 0.00 0.00 0.00 67 1015.3
20260902061604 28 66 1.6 8.0 0.00 0.00 0.00 67 1015.1
20260902061055 28 78 0.0 9.7 0.00 0.00 0.00 66 1015.1
20260902060555 28 92 1.6 9.7 0.00 0.00 0.00 66 1015.1
20260902060107 28 80 1.6 9.7 0.00 0.00 0.00 66 1015.1
20260902055555 28 101 1.6 8.0 0.00 0.00 0.00 66 1015.0
20260902055056 28 283 1.6 8.0 0.00 0.00 0.00 65 1014.9
20260902054609 28 32 3.2 8.0 0.00 0.00 0.00 65 1015.0
20260902054057 28 217 1.6 6.4 0.00 0.00 0.00 64 1015.0
20260902053555 28 199 1.6 6.4 0.00 0.00 0.00 64 1014.8
20260902053113 29 0 1.6 6.4 0.00 0.00 0.00 63 1014.9
20260902052557 29 58 1.6 6.4 0.00 0.00 0.00 63 1014.8
20260902052056 29 0 1.6 6.4 0.00 0.00 0.00 63 1014.7
20260902051624 29 54 1.6 6.4 0.00 0.00 0.00 62 1014.6
20260902051055 29 78 3.2 9.7 0.00 0.00 0.00 62 1014.8
20260902050555 29 73 1.6 9.7 0.00 0.00 0.00 61 1014.7
20260902050110 29 93 1.6 8.0 0.00 0.00 0.00 62 1014.8
20260902045555 29 112 1.6 8.0 0.00 0.00 0.00 63 1014.7
20260902045055 28 130 1.6 8.0 0.00 0.00 0.00 65 1014.7
20260902044602 28 0 0.0 0.0 0.00 0.00 0.00 65 1014.6
20260902044056 28 0 0.0 0.0 0.00 0.00 0.00 64 1014.5
20260902043555 28 0 0.0 1.6 0.00 0.00 0.00 63 1014.4
20260902043121 29 0 0.0 1.6 0.00 0.00 0.00 62 1014.6
20260902042555 29 0 0.0 1.6 0.00 0.00 0.00 62 1014.4
20260902042056 29 95 0.0 1.6 0.00 0.00 0.00 61 1014.4
20260902041603 30 0 0.0 1.6 0.00 0.00 0.00 61 1014.4
20260902041055 30 0 0.0 1.6 0.00 0.00 0.00 60 1014.4
20260902040555 30 123 0.0 3.2 0.00 0.00 0.00 60 1014.4
20260902040105 30 0 0.0 3.2 0.00 0.00 0.00 60 1014.4
20260902035554 30 84 0.0 3.2 0.00 0.00 0.00 60 1014.4
20260902035054 30 0 0.0 3.2 0.00 0.00 0.00 60 1014.3
20260902034601 30 0 0.0 4.8 0.00 0.00 0.00 60 1014.4
20260902034054 30 0 0.0 4.8 0.00 0.00 0.00 60 1014.4
20260902033555 30 145 0.0 1.6 0.00 0.00 0.00 60 1014.4
20260902033103 30 0 0.0 1.6 0.00 0.00 0.00 60 1014.2
20260902032556 30 0 0.0 1.6 0.00 0.00 0.00 60 1014.1
20260902032056 30 0 0.0 0.0 0.00 0.00 0.00 60 1014.0
20260902031607 30 0 0.0 0.0 0.00 0.00 0.00 60 1014.2
20260902031055 30 0 0.0 0.0 0.00 0.00 0.00 59 1014.0
20260902030555 30 0 0.0 3.2 0.00 0.00 0.00 57 1013.9
20260902030100 30 0 0.0 3.2 0.00 0.00 0.00 57 1013.8
20260902025555 30 129 0.0 1.6 0.00 0.00 0.00 57 1013.9
20260902025055 30 0 0.0 3.2 0.00 0.00 0.00 57 1013.8
20260902024600 31 0 0.0 3.2 0.00 0.00 0.00 56 1013.6
20260902024054 31 0 0.0 3.2 0.00 0.00 0.00 56 1013.5
20260902023554 31 0 0.0 3.2 0.00 0.00 0.00 56 1013.5